EHI
0 0 0 0 0 0 0 0 0 0 0 0 0 0 0 0 0 0 0 0 0 0 0 0 0 0 0 1 2 3 2 2 2 1 0 0 0 0 0 0 0 0 0 0
0 0 0 0 0 0 0 0 0 0 0 0 0 0 0 0 0 0 0 0 0 0 0 0 0 0 0 1 2 3 2 1 2 1 0 0 0 0 0 0 0 0 0 0
0 0 0 0 0 0 0 0 0 0 0 0 0 0 0 1 1 1 0 0 0 0 0 0 0 0 0 1 2 3 2 1 2 2 1 0 0 0 0 0 0 0 0 0
0 0 0 0 0 0 0 0 0 0 0 0 0 0 0 1 2 1 0 0 0 0 1 1 1 1 1 1 3 3 2 1 1 1 0 0 0 0 0 0 0 0 0 0
0 0 0 0 0 0 0 0 0 0 0 0 0 0 0 1 2 1 0 0 0 0 1 1 2 2 2 2 2 3 2 1 1 0 0 0 0 0 0 0 0 0 0 0
0 0 0 0 0 0 0 0 0 0 0 0 0 0 0 1 2 2 1 0 0 0 0 1 2 2 1 1 1 3 3 2 2 1 0 0 0 0 0 0 0 0 0 0
0 0 0 0 0 0 0 0 0 0 0 0 0 0 0 0 1 2 1 0 0 0 0 1 1 1 0 0 1 2 3 3 3 2 1 0 0 0 0 0 0 0 0 0
0 0 0 0 0 0 0 0 0 0 0 0 0 0 0 0 1 2 2 1 0 0 1 1 1 0 0 1 2 2 3 3 3 2 1 0 0 0 0 0 0 0 0 0
0 0 0 0 0 0 0 0 0 0 0 0 0 0 0 0 1 2 2 1 0 1 1 1 0 0 0 1 2 3 3 3 3 3 1 0 0 0 0 0 0 0 0 0
0 0 0 0 0 0 0 0 0 0 0 0 0 0 0 0 0 1 1 0 0 1 2 1 0 0 1 2 3 3 3 3 3 3 2 1 0 0 0 0 0 0 0 0
0 0 0 0 0 0 0 0 0 0 0 0 0 0 0 0 0 0 0 0 0 1 1 1 0 1 2 3 3 3 3 3 3 3 2 1 1 1 1 1 1 0 0 0
0 0 0 0 0 0 0 0 0 0 0 0 0 0 0 0 0 0 0 0 0 0 0 0 0 1 2 3 3 3 3 3 2 1 1 1 2 2 2 2 2 1 0 0
0 0 0 0 0 0 0 0 0 0 0 0 0 0 0 0 0 0 1 2 1 0 0 0 1 1 3 3 3 3 3 2 2 1 0 1 2 2 2 2 2 1 0 0
0 0 0 0 0 0 0 0 0 0 0 0 0 0 0 0 0 1 2 2 1 0 0 1 2 3 3 3 3 3 3 2 2 2 1 1 1 1 1 1 1 0 0 0
0 0 0 0 0 0 0 0 0 0 0 0 0 0 0 0 0 1 2 1 1 0 0 1 2 3 3 3 3 3 3 3 3 4 3 2 1 0 0 0 0 0 0 0
0 0 0 0 0 0 0 0 0 0 0 0 0 0 0 0 0 1 1 0 0 0 0 1 2 3 3 3 3 3 3 3 3 3 2 1 1 0 0 0 0 0 0 0
0 0 0 0 0 0 0 0 0 0 0 0 0 0 0 0 0 0 0 0 0 0 0 0 1 2 3 3 3 3 3 3 3 3 1 0 0 0 0 0 0 0 0 0
0 0 0 0 0 0 0 0 0 0 0 0 0 0 0 0 0 0 0 0 0 0 0 0 0 1 1 2 2 3 3 3 3 2 1 0 0 1 1 0 0 0 0 0
0 0 0 0 0 0 0 0 0 0 0 0 0 0 0 0 0 0 0 0 0 0 0 0 0 0 0 1 1 1 2 2 2 2 1 0 1 2 2 1 0 0 0 0
0 0 0 0 0 0 0 0 0 0 0 0 0 0 0 0 0 0 0 0 0 0 0 0 0 0 0 0 0 0 1 1 1 1 0 1 1 3 2 1 0 0 0 0
0 0 0 0 0 0 0 0 0 0 0 0 0 0 0 0 0 0 0 0 0 0 0 0 0 0 0 0 0 0 0 0 0 0 1 2 3 3 2 1 0 0 0 0
0 0 0 0 0 0 0 0 0 0 0 0 0 0 0 0 0 0 0 0 0 0 0 0 0 0 0 0 0 0 0 0 0 0 1 2 2 2 1 0 0 0 0 0
0 0 0 0 0 0 0 0 0 0 0 0 0 0 0 0 0 0 0 0 0 0 0 0 0 0 0 0 0 0 0 0 0 0 1 1 1 1 0 0 0 0 0 0
0 0 0 0 0 0 0 0 0 0 0 0 0 0 0 0 0 0 0 0 1 0 0 0 0 0 0 0 0 0 0 0 0 0 0 0 0 0 0 0 0 0 0 0
0 0 0 0 0 0 0 0 0 0 0 0 0 0 0 0 0 0 0 0 0 0 0 0 0 0 0 0 0 0 0 0 0 0 0 0 0 0 0 0 0 0 0 0
0 0 0 0 0 0 0 0 0 0 0 0 0 0 0 0 0 0 0 0 0 0 0 0 0 0 0 0 0 0 0 0 0 0 0 0 0 0 0 0 0 0 0 0
Wind_Speed
3 2 3 6 5 4 6 6 5 5 5 5 6 7 7 7 7 8 8 8 9 9 9 7 6 4 4 5 6 6 5 4 3 2 2 2 2 2 3 3 4 4 5 5
3 2 1 3 4 3 7 8 6 5 5 5 7 7 7 8 9 9 9 9 8 9 10 8 6 5 4 5 5 5 5 5 4 2 1 2 2 2 3 2 3 4 4 5
3 2 2 4 5 5 5 7 7 6 6 6 6 5 8 9 8 8 7 8 9 10 11 10 8 7 5 5 5 5 5 5 4 3 2 2 2 1 2 2 2 2 3 3
2 2 3 3 4 4 4 5 6 6 5 4 6 4 8 11 9 9 8 7 8 8 9 9 8 7 6 5 4 5 5 5 4 4 2 2 2 2 2 2 2 2 3 4
3 4 3 3 3 3 3 5 6 7 5 4 7 4 6 11 11 12 11 10 8 9 9 9 8 7 7 6 4 4 5 5 5 4 3 3 3 2 2 2 2 2 3 3
3 2 2 2 2 2 3 5 6 6 5 5 8 6 4 9 13 14 14 13 11 10 9 9 8 8 7 6 5 4 6 5 4 3 3 3 3 2 3 3 2 1 2 2
6 6 5 4 4 4 5 3 2 4 4 4 5 5 3 7 10 11 13 13 12 11 10 10 9 8 7 7 6 5 6 5 4 3 3 4 3 2 2 2 1 1 2 2
5 6 7 6 5 5 8 6 2 2 2 2 4 4 4 7 7 7 9 11 11 12 11 10 10 9 8 8 7 6 6 5 4 3 2 3 3 2 2 2 1 2 2 1
2 3 8 6 5 4 5 5 5 3 5 3 3 4 6 7 7 7 8 9 10 11 11 11 10 10 9 8 7 6 6 5 5 3 2 2 3 3 2 1 2 2 2 2
2 2 6 6 5 5 5 5 3 3 2 2 2 4 6 10 9 9 9 9 9 9 10 10 9 9 9 8 7 7 6 6 5 4 3 3 3 3 2 2 3 2 2 2
2 2 5 6 6 7 7 6 4 4 4 1 2 2 2 8 8 9 9 9 9 9 10 10 9 9 8 8 7 6 6 6 5 4 3 4 2 2 2 2 2 1 1 1
3 2 4 7 7 7 6 6 6 4 4 3 1 1 2 6 8 7 8 9 9 10 10 10 9 9 8 8 8 7 7 6 5 4 4 4 3 2 2 2 1 1 1 2
2 2 3 3 5 7 6 7 7 6 5 4 3 1 4 6 7 7 7 7 8 9 10 10 9 9 9 8 8 7 7 6 6 5 4 4 4 3 2 2 2 2 2 2
3 5 5 5 4 4 7 8 8 7 5 5 4 3 4 3 4 6 7 7 8 9 9 10 9 8 8 8 7 7 7 7 6 5 4 4 3 3 3 2 1 1 2 2
5 7 7 6 7 6 7 7 8 9 8 7 6 5 4 1 3 5 7 7 8 9 10 10 10 9 8 8 8 7 7 7 7 6 5 4 3 3 3 2 1 1 1 2
7 8 8 7 8 8 9 9 9 10 10 9 8 7 4 1 2 4 6 7 7 8 10 10 10 10 10 10 9 8 7 8 7 6 5 4 4 3 3 2 1 1 1 1
7 8 8 7 8 8 9 8 9 9 9 8 7 4 1 0 2 3 5 6 6 7 8 9 10 10 10 10 9 9 8 8 8 7 6 5 5 4 3 3 2 1 1 0
7 8 6 7 8 9 3 1 1 2 3 4 3 1 1 1 2 2 4 4 5 5 6 7 8 9 9 9 8 8 8 8 8 7 7 6 5 5 4 3 2 2 1 1
7 6 6 6 7 7 3 1 0 1 2 3 3 1 2 1 2 2 3 3 3 4 4 5 6 8 8 8 9 9 8 8 7 7 7 7 6 6 5 4 4 3 2 1
6 6 6 6 8 6 2 3 3 1 1 3 2 2 2 1 1 2 3 3 3 3 3 4 4 6 7 7 8 8 8 8 8 8 7 7 6 6 6 5 4 3 3 3
8 7 7 8 8 5 2 2 1 1 2 5 5 4 3 2 2 2 3 3 3 4 4 3 3 3 4 6 7 7 7 8 7 7 6 6 6 6 6 5 4 4 3 3
5 4 6 7 8 3 3 1 2 3 4 5 5 5 4 4 3 4 3 3 4 4 4 3 3 3 3 4 5 6 5 5 6 6 6 6 6 6 5 5 4 4 4 4
5 4 2 2 0 4 4 4 4 5 4 5 5 4 4 3 3 3 3 3 3 4 3 3 3 3 3 3 3 4 4 5 6 6 6 5 5 5 5 5 5 4 4 4
3 3 2 2 1 3 3 3 3 4 4 4 3 3 3 2 2 3 3 2 2 3 3 3 3 3 3 3 3 3 4 5 5 6 5 5 5 5 5 4 4 4 4 4
3 3 3 3 1 1 2 2 2 3 3 3 3 3 2 2 2 2 2 2 2 2 2 2 3 2 2 2 2 3 4 4 5 5 5 5 5 5 4 4 4 5 4 5
4 4 4 2 2 2 1 3 2 2 2 2 2 2 2 2 2 3 2 2 2 2 2 1 1 2 2 2 2 3 3 3 4 4 4 3 3 3 4 4 3 6 6 8
Wind_Direction
188 169 169 172 177 159 147 147 146 142 146 152 159 163 171 176 184 180 177 173 168 155 145 139 141 144 147 128 121 127 127 114 99 72 65 75 72 61 63 66 50 35 35 23
122 147 184 140 146 156 145 150 148 144 162 168 169 182 185 186 193 189 184 175 169 157 148 145 153 148 131 114 114 111 105 100 91 78 84 95 89 87 90 64 55 40 39 26
116 140 151 149 154 164 150 164 163 161 172 187 177 190 187 187 194 192 193 179 176 170 160 159 161 147 136 126 123 122 121 115 111 105 74 64 71 47 74 73 63 46 53 40
104 177 157 164 174 170 159 175 170 179 186 197 198 198 198 186 187 189 193 191 180 167 157 155 156 149 146 139 134 128 118 115 113 108 79 69 81 72 69 73 73 59 56 48
168 159 159 178 170 154 160 179 188 203 222 233 213 216 203 177 187 192 192 194 183 170 163 154 155 150 145 137 132 123 112 99 92 95 91 61 58 67 69 63 57 59 63 53
155 155 189 190 155 176 179 186 202 223 236 241 220 213 205 183 191 187 187 189 184 171 162 154 149 144 137 132 130 120 114 106 104 106 111 105 90 75 67 57 42 36 62 51
173 183 188 188 175 192 204 209 211 205 215 230 209 210 196 175 178 178 178 181 179 168 163 158 153 150 144 143 145 140 132 131 138 153 148 134 122 111 96 81 56 34 58 49
182 178 183 191 209 200 206 211 237 271 247 256 213 196 140 131 141 154 166 170 169 166 167 165 160 155 152 153 155 154 148 149 155 172 154 132 130 112 89 71 64 59 66 58
227 173 168 185 216 244 225 221 236 270 281 267 228 142 126 132 143 153 161 163 168 168 166 164 158 156 157 159 162 161 155 157 163 167 143 113 106 95 81 61 61 65 62 47
269 160 169 175 213 240 260 265 248 251 283 282 236 190 160 160 166 166 167 166 165 162 161 156 155 156 158 158 162 162 165 166 165 163 152 117 99 102 84 57 58 45 45 34
257 231 177 182 207 220 217 233 253 262 256 267 339 341 92 151 158 167 172 169 167 163 160 158 156 156 155 156 161 166 170 163 158 158 139 124 124 115 112 92 75 62 59 34
218 265 226 211 207 220 233 244 252 264 288 285 229 226 147 142 150 158 163 165 166 163 159 156 155 156 159 165 170 173 173 160 154 151 137 140 143 142 136 119 94 42 45 27
312 249 249 209 194 201 224 237 252 266 276 280 285 174 145 146 150 154 155 158 158 158 155 154 156 162 166 169 172 172 167 156 153 150 152 163 159 152 142 113 78 28 28 28
295 257 256 253 266 230 220 227 236 252 259 269 273 259 239 181 157 152 154 158 156 158 158 158 161 165 167 170 172 170 166 157 157 158 168 173 159 150 137 112 92 45 28 13
251 264 256 253 259 263 251 246 239 247 259 265 269 268 265 225 152 150 151 152 157 161 164 166 167 170 171 173 174 173 170 163 162 163 170 170 161 144 132 125 131 91 40 7
238 272 277 260 250 255 255 246 243 246 253 261 268 275 289 316 114 142 153 158 165 170 171 171 174 175 178 178 178 177 172 167 163 167 169 163 153 139 138 144 145 104 54 11
228 251 274 279 267 258 256 248 244 239 243 250 254 261 271 182 143 149 157 166 171 173 174 175 179 179 182 183 180 177 173 166 167 169 165 159 159 159 164 164 146 152 191 142
256 265 271 274 275 264 270 350 188 248 288 295 298 301 212 156 134 133 142 159 171 171 173 179 180 178 181 178 172 169 165 167 172 171 168 166 165 165 164 163 173 189 198 172
250 267 277 279 278 276 276 314 227 256 289 315 307 319 105 125 142 131 100 121 146 162 174 177 177 175 178 175 169 167 170 172 174 173 171 170 167 168 171 177 187 192 187 196
233 249 258 266 274 280 332 42 54 335 291 357 360 40 75 90 175 115 99 106 122 130 142 156 166 168 169 165 162 169 175 176 178 175 174 172 170 171 177 184 190 191 190 206
206 220 235 253 263 275 358 62 120 251 45 36 36 50 69 63 65 71 88 101 108 112 117 120 132 145 153 153 159 175 182 185 176 166 168 171 170 174 180 183 188 190 198 211
243 236 233 241 250 256 65 74 41 41 44 45 43 48 52 54 64 73 85 102 110 110 116 124 125 122 129 147 162 181 188 171 153 156 165 172 175 184 185 180 190 199 203 214
240 250 269 271 67 83 77 61 44 28 30 37 38 42 55 51 60 72 83 92 109 120 125 128 131 135 148 160 171 186 170 148 149 159 170 178 183 185 179 182 195 205 206 215
282 285 259 269 160 111 97 67 54 43 29 33 35 44 57 58 66 73 86 94 101 118 128 131 138 153 167 167 169 172 155 155 162 173 180 187 192 192 192 193 198 204 209 217
312 313 278 267 288 54 71 58 46 42 36 36 41 52 56 75 76 80 83 82 89 94 108 128 149 166 174 168 172 166 159 172 183 188 191 196 197 194 194 198 207 211 215 214
286 290 273 263 310 318 49 60 58 47 28 24 40 50 56 74 87 81 84 79 87 100 96 104 125 152 175 178 172 167 167 182 194 201 202 198 193 192 194 200 221 230 226 228